Simultaneous Nadir Overpasses (SNOs) Predictions

Prediction of SNOs between AQUA and METOP-B Satellite Orbit:

Table of predicted SNOs for the next 14.0 days since TLE Epoch: 7/11/2014
Index Date (AQUA) Time (AQUA) Lat,Lon (AQUA) SZA (AQUA ) Date (METOP-B) Time (METOP-B) Lat,Lon (METOP-B) SZA (METOP-B ) Distance(km) Time Diff (sec)
1 07/13/2014 09:38:54 -73.75,-150.24 128.02 07/13/2014 09:38:17 -73.76,-150.28 127.99 2.40 37
2 07/13/2014 10:28:23 73.82, 17.23 52.08 07/13/2014 10:28:56 73.81, 17.16 52.06 2.29 33
3 07/16/2014 05:13:07 -73.75, -83.81 127.57 07/16/2014 05:12:37 -73.75, -83.90 127.56 2.89 30
4 07/16/2014 06:02:36 73.83, 83.65 52.53 07/16/2014 06:03:15 73.84, 83.65 52.53 0.90 39
5 07/19/2014 00:47:19 -73.79, -17.45 127.04 07/19/2014 00:46:55 -73.78, -17.42 127.05 1.51 24
6 07/19/2014 01:36:48 73.88, 150.00 53.06 07/19/2014 01:37:33 73.86, 150.11 53.04 3.84 45
7 07/21/2014 19:31:52 73.12,-117.22 52.76 07/21/2014 19:30:46 73.10,-119.86 52.88 85.25 66
8 07/21/2014 20:21:31 -73.81, 48.96 126.49 07/21/2014 20:21:14 -73.81, 49.06 126.49 3.22 17
9 07/21/2014 21:10:59 73.85,-143.49 53.56 07/21/2014 21:11:53 73.83,-143.55 53.54 2.89 54
10 07/24/2014 15:06:09 73.44, -51.43 53.68 07/24/2014 15:04:59 73.42, -52.75 53.73 42.07 70
11 07/24/2014 15:55:42 -73.81, 115.40 125.91 07/24/2014 15:55:33 -73.83, 115.52 125.90 3.75 9
12 07/24/2014 16:45:10 73.86, -77.05 54.15 07/24/2014 16:46:12 73.84, -77.11 54.12 2.41 62




NCC Satellite Simultaneous Nadir Overpasses (SNOs) Prediction Service
